Voltar ao catálogo

STARLINK-33715

AtivoComunicaçõesVLEO
NORAD 63441·PAYLOAD·🇺🇸 United States

Lançado Apr 4, 2025 de Vandenberg Space Force Base

Loading…

Próximas Passagens (próximas 24 horas)

TLE

AtualizadoSource: CelesTrak SupGP

Época: Sep 14, 2026, 21:21 UTC

1 63441C 25069J   26257.89006944 -.00017307  00000+0 -51153-3 0  2576
2 63441  53.1598 334.2942 0001330  80.1723 283.5716 15.34388400    15

Acompanhe STARLINK-33715 em tempo real com AllMySat

Download on the App Store